{"data":{"norad_id":68723,"intl_designator":"2026-081AA","name":"STARLINK-37273","alt_names":[],"object_type":"PAYLOAD","status":"ACTIVE","operator":null,"country":"US","launch_date":"2026-04-14","launch_site_code":"AFETR","launch_vehicle":null,"mission":null,"orbit_class":"UNKNOWN","rcs_meters":null,"size_class":null,"mass_kg":null,"dimensions":null,"purposes":["comms"],"wikipedia_slug":null,"has_3d_model":false,"image_url":null,"decayed_at":null,"tle_current":{"epoch":"2026-05-25T00:37:51.379968Z","epoch_age_seconds":66779,"freshness":"FRESH","line1":"1 68723U 26081AA  26145.02628912  .00020982  00000+0  38391-3 0  9998","line2":"2 68723  53.1598  39.9909 0000973  71.4164 288.6950 15.49337053  6420","mean_motion":15.49337053,"eccentricity":9.73e-5,"inclination_deg":53.1598,"raan_deg":39.9909,"arg_perigee_deg":71.4164,"mean_anomaly_deg":288.695,"bstar":0.00038391,"rev_number":642,"period_min":92.942978237802,"perigee_km":418.00290830759,"apogee_km":419.32556582832,"semimajor_km":6796.801237068,"source":"CELESTRAK","updated_at":"2026-05-25T13:38:22.003093Z"}}}